Wind_Speed
34 38 41 42 42 43 45 44 42 41 39 39 40 40 38 38 38 37 35 33 32 32 32 30 30 33 35 35 34 33 33 34 35 34 32 31 30 30 29 28 27 25 25 23 21 20 20 19 18 17 15 15 15 18 21 22 23 24 25 26 26 24 22 19 16 13 12 12 16 17 17 17 18 16 14 13 14 13 14 16 15 13 12 11 11
33 36 40 42 42 42 43 44 43 43 41 41 41 40 38 39 40 39 36 34 33 34 34 31 29 32 34 35 36 34 32 32 35 35 34 33 32 31 30 30 28 25 24 24 20 20 22 23 22 20 18 20 22 24 27 28 29 29 28 26 25 22 20 20 18 17 16 15 17 20 20 20 18 16 12 11 13 16 17 16 12 12 13 11 11
35 37 39 42 42 41 41 43 44 45 44 43 42 41 39 40 41 40 37 35 35 35 35 31 30 32 33 34 34 33 32 31 34 36 36 35 34 32 30 29 27 25 25 24 20 20 23 25 26 26 24 26 29 30 31 29 27 27 25 23 21 19 18 20 20 19 18 19 20 21 21 19 17 14 11 12 15 16 16 13 10 11 13 12 14
38 37 37 39 41 41 40 41 44 46 46 45 43 42 41 42 43 41 38 37 37 37 34 30 31 34 35 34 33 33 33 32 34 37 37 37 35 33 30 29 27 26 24 23 21 21 23 25 25 25 26 28 29 29 27 24 21 21 20 19 19 19 17 17 17 19 20 20 20 19 18 17 14 11 11 13 16 15 12 10 9 11 13 13 14
41 38 36 38 40 41 41 41 43 45 46 46 45 43 43 44 44 42 39 39 40 38 34 31 33 36 37 36 34 33 33 34 35 37 38 38 36 33 32 30 29 27 25 23 22 22 24 26 24 22 24 27 28 26 25 23 22 22 19 17 18 19 19 17 17 21 21 19 17 14 14 14 13 11 13 13 14 13 11 10 8 9 10 11 12
40 39 38 39 41 41 42 43 44 45 46 46 45 44 44 44 43 41 40 41 42 39 33 33 37 39 38 38 36 34 35 37 37 36 38 38 36 34 32 30 29 28 27 25 24 24 26 28 25 22 25 28 29 27 26 25 25 23 20 19 19 20 22 21 21 22 22 19 15 12 14 15 13 11 12 12 13 12 10 9 9 10 11 12 13
41 41 42 42 41 41 43 45 45 45 45 46 45 44 45 44 42 40 40 41 42 40 35 34 39 41 40 40 38 35 36 38 38 36 37 38 37 35 33 30 29 29 29 28 26 24 26 28 26 24 26 29 29 28 27 26 26 24 22 21 21 22 23 24 23 22 21 18 14 13 15 16 14 12 9 11 15 16 13 12 11 10 10 10 10
43 44 47 46 43 42 43 44 45 45 44 45 47 46 45 45 42 41 41 41 43 42 38 37 39 41 40 39 37 35 37 38 38 38 38 37 36 35 33 32 31 29 28 27 25 24 26 27 26 25 27 29 29 27 27 26 25 25 24 24 24 24 23 22 22 21 20 18 16 15 16 16 15 13 11 12 16 15 12 10 11 12 11 10 10
45 47 50 49 45 42 42 42 44 46 46 46 47 47 46 45 43 42 42 42 43 44 41 39 40 40 39 39 37 37 39 41 40 40 39 38 36 35 34 34 33 29 27 27 26 26 26 26 26 26 27 28 28 26 26 25 24 25 25 26 26 25 23 21 19 19 18 17 16 16 16 15 15 14 14 15 15 11 8 9 12 12 11 10 10
44 46 48 49 47 44 43 43 43 45 47 48 48 47 46 44 43 43 43 42 43 44 43 40 40 41 40 41 40 40 41 43 43 42 40 38 37 36 35 36 34 30 29 29 28 26 25 25 26 26 27 28 27 26 25 25 25 25 26 26 25 24 22 20 18 18 17 16 17 17 15 15 15 14 14 14 10 8 10 13 13 12 10 9 9
42 44 45 46 46 45 44 43 43 45 47 48 48 48 46 44 44 44 45 44 43 43 44 42 40 40 41 42 42 42 43 43 44 43 41 39 38 37 36 36 35 32 31 31 29 26 25 26 26 27 28 28 27 26 26 26 25 25 26 26 24 22 20 20 19 18 17 16 17 17 15 15 16 14 13 12 10 11 14 15 13 11 9 9 9
42 43 44 44 45 45 45 44 43 44 46 48 48 48 47 46 46 46 46 46 45 44 45 44 42 41 42 43 43 44 44 44 45 44 41 39 39 38 37 37 36 32 32 33 30 27 26 27 27 28 29 29 29 28 27 26 26 26 25 25 23 21 20 20 20 19 17 17 17 16 16 17 15 14 14 13 13 14 14 12 9 8 8 8 10
40 42 44 44 44 45 45 46 45 43 44 48 49 49 48 48 47 47 47 47 47 47 47 47 45 42 42 44 44 45 45 45 46 46 43 41 41 40 39 38 36 33 33 34 31 27 26 28 29 29 29 29 29 29 28 27 26 26 25 24 22 21 20 21 21 19 19 19 17 16 17 17 14 14 16 16 15 14 13 10 8 7 8 11 14
37 39 42 45 45 45 44 45 46 45 45 48 50 49 49 49 48 47 47 47 48 49 49 49 48 45 44 45 45 44 45 47 47 47 46 44 44 44 42 38 35 34 35 35 31 26 25 27 29 30 30 30 30 29 28 28 27 26 25 24 22 21 20 21 22 21 20 21 20 17 16 16 15 15 17 18 17 15 14 13 11 11 13 14 14
37 36 39 44 45 45 45 45 45 45 46 48 50 51 50 49 48 46 47 48 49 50 51 50 50 48 47 47 46 45 46 48 48 48 46 46 47 47 43 39 36 36 36 34 29 26 26 27 29 30 30 30 30 29 29 28 27 27 26 25 24 21 20 21 23 22 21 23 24 21 18 17 19 20 19 19 17 15 13 14 13 13 14 13 10
41 39 37 42 46 45 45 46 45 46 47 48 50 51 50 50 49 47 48 49 50 51 51 51 51 50 49 48 47 47 48 49 50 49 47 47 48 47 44 40 38 38 37 34 29 27 26 27 29 30 30 30 29 28 28 27 27 27 27 26 24 22 22 23 23 23 23 25 25 23 21 20 21 22 21 19 17 15 13 13 12 11 10 10 8
42 42 38 40 47 48 46 46 46 47 48 48 50 51 51 50 50 50 49 49 51 52 51 51 51 51 50 49 47 48 49 50 50 49 48 47 49 48 45 42 40 39 37 34 30 28 28 28 30 30 30 30 28 27 27 27 27 27 27 27 25 24 23 23 23 24 25 26 25 24 23 23 22 21 20 18 16 15 14 12 10 9 8 8 8
39 43 40 38 43 48 49 47 47 48 49 50 50 51 51 50 50 51 50 51 52 53 52 51 52 52 51 50 48 49 50 51 50 48 48 48 49 49 47 43 41 39 35 34 32 30 29 30 30 29 30 29 28 26 26 26 26 27 28 27 26 25 25 23 22 24 26 26 25 25 24 24 24 22 20 18 16 16 14 13 11 10 10 10 10
36 40 42 39 38 44 49 49 48 49 51 51 52 52 52 52 52 51 51 51 52 53 52 52 52 52 52 51 48 49 51 52 51 49 47 46 48 49 48 45 42 39 36 35 33 29 27 28 28 28 29 28 27 26 25 24 25 27 27 27 26 26 25 22 21 23 25 25 25 25 23 23 23 22 20 19 17 17 15 13 12 12 12 12 11
34 37 42 43 39 39 41 43 46 50 52 53 54 54 53 53 52 52 52 52 51 50 51 52 52 52 52 51 49 50 52 53 51 49 46 45 47 49 49 47 44 40 39 38 33 28 26 27 27 28 28 28 27 25 23 24 25 26 26 26 26 25 24 22 20 21 23 24 24 23 22 22 22 21 20 20 18 17 15 14 13 12 12 11 10
32 34 38 43 45 43 39 36 39 46 51 54 54 53 52 53 53 53 53 51 50 49 49 51 52 52 51 50 49 50 53 54 51 48 46 44 46 50 51 49 46 43 41 39 34 29 27 27 28 28 28 28 27 25 23 23 25 25 24 24 24 23 22 22 20 20 21 23 23 22 21 21 21 21 21 20 19 17 16 15 13 12 11 10 9
31 32 33 35 41 47 49 46 44 45 50 53 51 47 48 50 52 52 52 51 50 49 48 49 51 51 50 50 49 50 53 54 52 49 46 43 45 50 51 50 48 46 44 41 35 30 29 29 29 27 25 26 27 25 23 24 25 24 23 23 23 23 22 22 21 21 21 22 21 21 21 21 21 21 20 20 19 18 16 14 12 10 9 9 8
32 33 34 31 31 38 46 50 51 51 52 53 51 46 45 47 49 50 50 50 50 48 47 48 51 50 49 49 49 50 52 54 53 50 45 42 44 49 50 49 49 48 46 42 37 33 31 31 28 25 23 25 26 25 25 24 24 25 24 24 23 22 21 22 22 22 21 20 20 20 20 20 19 19 18 17 15 14 12 10 10 9 9 10 10
32 32 36 36 32 32 34 38 46 51 53 55 54 49 47 48 49 49 49 49 50 48 47 49 50 49 49 49 48 49 52 53 52 50 45 41 43 48 50 49 49 48 46 42 38 36 34 31 27 24 24 24 24 25 26 24 24 25 24 23 23 23 22 22 22 20 19 19 19 18 18 17 16 14 12 11 10 9 9 10 10 10 11 11 12
32 30 34 38 37 37 36 35 38 42 45 50 51 50 49 50 50 51 50 50 49 48 48 50 51 49 49 49 48 49 52 53 51 48 45 42 42 46 50 50 48 47 45 42 40 38 35 31 27 24 24 23 23 24 26 25 24 24 24 24 23 24 23 22 21 20 20 19 18 17 17 16 14 12 11 10 10 10 10 10 10 9 10 11 13
30 29 31 35 38 39 40 40 38 36 37 42 47 50 51 51 51 51 51 50 49 49 49 50 50 49 48 47 47 49 52 52 49 44 41 41 42 47 51 50 47 46 44 43 42 39 35 32 29 25 23 23 22 23 25 25 24 24 25 25 24 25 25 24 24 24 23 21 18 17 16 14 12 13 14 14 13 12 12 11 11 11 13 14 15
29 27 28 32 36 36 37 39 39 37 37 39 44 48 51 51 50 50 50 50 49 50 50 50 49 49 49 46 46 49 51 50 46 41 39 41 44 48 52 51 48 48 47 44 42 39 35 32 29 25 23 22 21 22 24 25 26 26 26 25 25 25 25 25 26 27 24 21 18 16 14 13 12 13 14 16 17 17 16 15 14 15 15 14 14
31 28 28 30 33 33 32 33 35 35 37 39 42 46 49 51 51 50 51 52 51 51 52 53 52 52 51 48 46 48 50 49 46 42 41 43 47 50 52 52 51 50 49 46 41 38 35 33 30 26 24 23 23 24 26 27 27 27 27 26 26 26 25 25 25 26 23 19 16 15 13 13 15 16 15 15 16 17 17 16 15 15 14 13 13
31 28 27 28 30 30 30 29 28 28 32 36 40 43 46 49 51 51 51 50 51 52 54 54 54 55 53 50 48 49 51 51 47 41 36 40 46 50 51 52 53 52 50 47 43 39 37 35 33 30 29 28 28 28 29 29 29 29 27 26 26 26 26 26 26 26 25 22 19 17 15 15 17 17 16 16 15 14 14 13 12 12 11 9 11
26 24 23 24 26 27 30 31 27 25 27 32 36 38 41 44 47 49 49 47 48 51 52 52 51 52 52 50 49 50 50 48 43 36 31 34 41 47 48 50 52 51 49 47 45 42 40 37 34 33 32 31 31 31 31 31 31 30 29 27 27 27 27 27 27 26 26 25 22 20 19 20 20 17 15 16 16 15 14 13 12 12 10 10 12
22 20 18 19 20 23 27 31 29 23 22 26 30 34 38 42 44 45 45 45 47 49 49 48 48 48 48 46 44 44 43 41 37 34 31 30 35 41 44 47 49 50 49 48 46 45 41 37 34 35 34 33 31 32 32 32 32 31 30 29 29 28 28 28 28 27 27 26 24 22 22 22 21 18 16 16 16 15 15 14 13 14 14 14 14
20 19 17 16 16 17 19 22 24 22 21 24 30 34 38 42 44 45 44 44 46 47 46 45 45 45 45 44 41 39 37 35 32 31 29 27 30 35 40 45 48 50 50 50 50 48 43 38 37 38 37 34 32 33 33 33 32 31 31 30 30 29 28 28 28 27 27 26 25 24 23 21 19 18 18 19 18 16 15 14 14 14 15 15 14
14 15 17 16 14 12 12 14 16 17 19 24 31 37 42 43 42 42 42 41 41 43 43 41 39 38 39 40 40 38 36 32 28 25 25 24 26 30 36 43 49 51 51 52 52 50 44 40 40 39 37 34 33 33 34 33 32 31 31 31 29 28 27 26 26 26 26 24 23 24 24 22 20 20 22 22 20 18 16 16 16 16 15 15 15
8 10 13 16 15 13 13 13 13 13 16 22 27 33 41 44 42 40 40 39 38 39 42 42 41 39 38 39 38 36 33 30 24 20 20 24 26 28 33 42 49 52 52 52 52 50 47 44 42 39 36 34 34 35 34 33 32 32 31 29 27 25 24 24 25 25 24 22 22 23 23 22 21 22 23 22 20 19 20 21 21 20 19 19 19
10 11 12 14 14 13 13 12 11 10 12 18 22 25 31 39 41 40 40 41 42 43 43 42 42 41 40 39 37 34 31 29 24 19 19 23 26 28 34 43 51 53 53 52 50 49 48 47 43 39 36 35 35 36 35 33 33 32 31 29 26 23 22 22 23 24 24 24 24 23 22 21 21 21 21 21 21 22 22 23 23 23 22 21 19
12 15 15 15 15 14 14 12 10 8 7 11 19 23 24 32 38 38 35 37 41 44 42 39 38 38 38 37 36 35 33 32 27 22 21 22 25 30 36 44 51 54 55 53 51 48 47 45 42 39 37 37 37 37 35 33 33 31 29 26 24 22 22 22 21 20 22 25 26 24 22 21 20 19 18 21 24 24 23 23 23 22 20 17 15
11 13 14 15 14 15 15 12 10 6 3 5 14 20 22 26 32 33 32 32 34 36 37 35 34 35 36 37 36 35 33 31 27 24 23 23 26 29 34 39 46 52 54 54 53 49 46 44 42 40 38 38 37 36 35 34 33 30 26 23 23 24 24 23 20 18 21 24 25 24 23 22 20 17 16 19 22 22 22 22 22 19 15 12 13
12 11 11 11 12 13 15 13 10 6 1 4 8 13 18 22 24 26 29 30 30 32 35 35 33 34 37 37 35 33 31 29 27 26 25 26 27 29 32 36 42 47 50 52 53 51 48 45 42 38 36 36 35 34 32 30 30 29 26 24 25 25 25 23 20 19 20 22 23 23 22 22 21 19 19 20 21 21 21 21 20 17 13 13 16
11 12 11 10 10 11 13 14 12 8 4 0 3 7 11 15 17 21 26 29 31 34 35 33 33 35 35 33 33 33 32 32 33 32 31 29 28 28 30 34 38 42 46 49 52 51 47 44 40 37 34 32 32 31 29 27 26 26 25 26 28 27 25 23 23 22 20 21 23 24 23 22 21 21 21 22 22 22 22 22 20 17 14 15 18
13 12 11 10 9 9 9 11 11 10 8 5 2 1 2 5 8 13 18 22 25 29 29 27 29 31 30 29 32 34 33 34 35 35 33 32 31 30 31 33 36 39 43 47 51 51 48 43 40 37 35 32 30 30 30 28 26 23 22 25 28 26 22 22 24 24 22 21 22 24 25 23 22 21 22 22 23 23 22 22 20 17 16 18 19
16 15 13 11 10 9 8 8 9 9 8 7 5 3 2 2 4 7 11 14 18 20 20 21 23 24 24 25 29 31 32 33 34 34 34 33 33 33 35 35 34 36 38 43 48 51 50 45 41 38 37 36 34 33 31 29 26 22 22 25 25 22 19 20 23 26 24 21 19 20 22 23 23 23 23 23 22 20 20 20 18 17 18 20 20
16 16 16 15 13 11 9 8 8 7 7 7 5 3 3 3 4 6 8 10 12 14 14 16 18 18 18 20 24 27 29 31 32 32 33 34 34 35 36 36 35 34 35 38 44 49 51 48 44 40 39 39 37 32 29 27 25 23 23 24 23 21 21 23 24 25 26 25 22 21 22 23 24 24 24 22 20 18 18 18 17 17 18 19 17
15 15 16 17 17 15 12 10 8 7 6 5 5 4 4 4 5 6 7 9 10 11 13 15 16 17 17 18 21 24 28 29 30 31 32 34 34 35 36 35 35 34 33 36 42 47 50 49 45 42 40 39 37 32 27 25 25 26 25 25 24 23 24 26 26 25 26 26 27 26 26 26 26 26 24 21 18 16 17 18 19 18 17 15 13
14 14 16 17 18 18 16 14 13 12 11 9 7 5 4 4 4 5 6 7 8 10 12 14 15 17 18 19 20 22 25 27 28 30 32 33 34 34 34 34 34 34 35 38 43 46 47 46 44 41 38 37 35 33 29 26 26 28 28 27 24 22 24 26 26 24 24 25 26 28 28 28 27 26 24 21 18 18 19 20 19 19 19 18 16
13 13 16 17 18 19 19 18 17 17 16 14 11 8 6 4 3 3 4 5 6 8 10 12 15 17 19 20 20 21 23 26 28 30 32 33 33 34 34 34 35 35 37 40 42 42 42 41 40 37 34 32 32 32 32 31 30 30 30 28 24 22 24 26 25 23 23 24 24 25 25 25 24 23 22 20 19 20 21 21 20 20 21 21 19
15 13 15 17 18 19 20 20 19 18 18 16 14 12 11 10 8 6 4 3 4 5 7 10 13 16 18 19 18 19 22 26 29 30 31 32 32 33 33 33 33 33 34 36 37 36 35 36 36 34 30 27 28 32 33 32 31 29 28 28 26 24 25 26 25 24 23 23 22 21 22 22 20 19 19 20 21 22 22 23 24 24 23 23 22
17 16 16 16 18 19 19 20 19 19 18 18 17 16 16 15 14 12 9 7 4 3 4 6 9 12 14 14 15 18 22 25 27 28 29 28 27 28 29 28 27 26 27 29 32 33 32 32 34 32 28 26 30 34 33 29 24 21 20 22 22 22 22 22 22 21 22 21 20 19 19 19 18 16 15 18 22 24 24 24 25 25 24 23 22
16 16 16 17 18 19 20 20 20 20 20 20 19 19 18 18 17 16 14 11 8 5 2 2 5 8 10 12 15 18 20 20 20 21 21 20 20 21 22 22 22 23 24 26 30 32 31 29 29 28 26 27 31 33 30 25 21 20 21 22 22 20 17 15 14 16 17 18 17 16 15 15 15 13 12 13 17 21 24 25 24 23 22 21 20
12 13 13 15 16 17 18 19 20 21 21 20 20 19 19 18 17 17 16 14 12 9 4 2 5 8 11 14 15 15 15 13 13 14 16 17 18 19 18 18 20 22 23 24 26 28 27 25 24 24 25 27 27 25 24 24 23 23 23 23 21 18 14 10 10 11 12 12 11 11 12 14 14 13 12 10 11 13 17 21 22 20 17 16 17
10 10 10 11 13 13 14 14 15 17 19 20 20 19 19 18 17 17 16 16 15 12 7 4 6 9 12 13 11 10 10 12 13 15 17 19 20 20 19 18 19 22 23 23 24 24 24 23 23 23 24 23 22 20 21 22 22 21 20 19 18 16 13 10 9 9 8 8 7 7 9 13 15 15 13 10 9 9 11 15 19 20 17 14 13
8 8 9 10 10 11 13 13 13 13 15 18 20 20 19 19 18 17 17 17 16 14 11 7 6 8 10 10 8 7 8 10 13 15 17 19 20 20 20 19 20 21 21 20 19 18 19 19 18 18 19 18 18 19 20 19 18 18 17 15 15 15 13 10 9 9 8 7 6 5 6 9 13 15 14 13 12 11 10 11 15 18 18 16 14
Wind_Direction
229 228 225 223 221 218 216 216 217 220 217 214 213 213 214 217 216 213 213 217 219 218 218 218 215 213 212 211 213 217 216 214 216 219 220 222 223 220 217 216 219 225 230 232 228 221 223 232 240 245 241 230 225 230 234 233 229 227 228 231 235 235 229 225 227 227 223 214 207 211 219 219 228 250 267 272 278 284 284 288 295 299 308 313 308
226 228 227 223 221 220 218 217 217 217 214 212 213 214 213 214 214 212 211 216 219 217 216 217 213 212 213 212 213 216 217 214 215 217 219 220 221 219 216 216 219 223 224 225 223 215 214 217 225 234 239 233 226 225 229 230 229 231 234 236 234 230 223 220 219 221 225 220 213 218 227 233 243 256 259 251 256 269 278 286 294 295 298 300 294
221 224 226 224 222 221 218 217 216 215 214 212 213 213 213 213 213 212 211 215 217 216 216 216 212 211 214 213 213 215 215 214 214 216 218 219 220 220 218 217 219 220 222 223 220 216 218 219 218 218 223 228 227 226 229 233 234 236 238 233 226 218 218 224 221 220 229 230 225 229 234 241 250 250 240 239 246 259 277 282 278 278 282 281 282
224 222 224 226 224 220 217 216 215 214 214 213 212 212 213 212 212 212 211 213 215 216 217 214 209 211 216 215 214 213 212 213 214 215 216 218 220 220 218 216 216 218 220 221 219 218 225 230 226 219 219 226 230 229 230 232 233 235 235 227 220 213 214 224 223 219 229 234 232 235 241 250 254 230 215 239 256 266 283 282 259 256 264 274 284
227 224 225 227 226 221 217 215 213 213 215 214 213 213 213 213 212 212 212 212 215 216 215 211 209 212 217 217 214 212 212 214 216 215 215 218 220 220 219 216 215 217 221 222 221 220 225 233 234 227 224 229 234 233 230 229 228 230 229 222 216 213 211 217 220 218 225 233 232 231 236 248 254 224 206 233 262 275 290 294 281 268 266 273 280
224 224 222 223 224 222 217 214 213 214 215 214 214 214 213 212 211 210 211 212 214 215 212 209 210 213 216 216 214 212 212 215 217 217 216 217 219 219 219 218 214 215 220 221 221 222 226 232 236 231 227 231 237 236 232 230 229 228 225 216 210 211 212 214 219 222 224 229 231 225 221 231 245 235 210 218 242 252 260 270 280 287 288 288 289
221 219 215 214 218 220 218 216 215 215 216 216 215 214 212 210 210 209 210 211 213 214 211 209 212 214 215 216 214 211 213 216 218 219 217 217 219 217 217 218 215 214 218 220 222 227 229 231 234 230 228 233 238 238 235 234 230 226 222 214 210 216 219 220 224 228 227 225 225 225 221 222 231 234 217 216 232 241 248 250 251 261 276 287 295
220 217 215 216 217 218 218 218 218 217 219 219 217 215 212 210 210 210 209 211 213 214 213 210 213 215 216 217 215 211 212 216 218 219 218 216 216 216 216 217 217 217 218 217 220 227 229 228 230 229 230 236 239 238 237 237 232 226 221 216 215 222 228 227 228 230 229 223 218 222 223 221 226 228 219 223 236 248 263 259 242 240 247 252 261
219 218 219 220 218 217 217 218 219 219 219 218 216 215 213 211 210 209 209 211 213 214 214 213 213 215 215 216 214 212 212 215 217 218 218 215 214 215 215 216 217 217 215 213 218 226 227 226 228 229 231 236 239 238 238 237 234 228 223 220 222 228 232 231 226 224 223 217 211 215 219 222 230 229 221 228 240 251 262 251 243 252 262 263 266
218 218 219 220 219 218 216 217 220 220 219 218 215 214 213 212 210 208 208 211 213 213 213 213 213 213 213 213 214 214 214 216 218 219 219 216 215 214 214 215 215 214 211 213 220 227 225 225 228 229 231 235 237 237 236 235 232 229 227 228 232 235 234 230 223 218 216 210 206 211 217 219 225 229 234 242 243 233 237 247 257 267 272 275 279
221 218 219 221 220 219 217 217 220 222 220 218 216 214 213 211 210 208 207 209 211 212 211 211 210 211 212 212 214 215 215 217 219 221 221 220 217 215 214 213 213 211 210 216 226 232 227 226 228 227 229 234 235 234 234 233 231 230 230 232 237 238 234 228 223 216 211 208 208 211 217 219 221 229 240 243 235 229 241 254 262 261 261 272 278
224 221 221 222 220 217 216 217 219 221 222 219 217 216 214 210 209 208 207 208 210 211 210 210 209 209 211 213 214 215 215 217 219 220 221 221 220 217 214 213 214 212 211 219 230 235 227 223 226 227 229 234 235 234 234 233 232 231 232 235 237 236 231 225 221 215 205 206 211 213 216 218 221 229 229 225 229 239 252 263 265 269 279 277 271
228 223 220 220 220 219 218 217 217 218 221 220 217 215 213 210 208 208 208 208 210 210 211 211 211 210 212 214 215 216 216 217 218 220 221 221 221 219 215 216 217 214 213 220 231 235 227 221 225 228 231 233 234 235 235 233 232 230 231 234 235 234 230 223 219 213 204 205 210 213 218 219 219 228 230 228 231 237 246 255 257 263 265 258 265
233 227 221 219 221 221 220 218 217 217 219 219 217 214 212 210 208 208 208 208 209 210 211 212 211 212 213 214 215 215 216 218 219 220 220 220 220 219 218 219 219 214 214 222 233 240 234 225 226 229 232 234 235 235 235 233 231 229 229 232 233 231 229 222 217 213 207 207 208 208 216 218 215 221 228 232 237 241 245 252 253 255 258 263 276
239 234 225 220 222 224 223 221 218 216 217 218 216 213 211 209 209 208 208 209 210 211 211 212 211 212 213 216 216 216 217 220 220 219 219 220 221 220 219 220 218 215 218 225 234 243 241 231 228 231 234 236 237 237 236 233 231 229 229 231 231 230 227 223 222 219 214 214 214 213 214 215 215 219 226 234 244 252 257 261 264 266 269 275 283
240 240 233 223 221 223 223 221 220 217 217 218 217 214 212 210 209 208 207 209 211 211 211 211 211 212 214 215 215 216 218 220 221 220 220 221 222 220 218 219 217 215 219 225 231 240 242 234 230 232 235 238 239 239 238 235 231 229 229 230 230 229 226 224 226 227 222 220 222 223 222 222 224 228 235 244 252 259 264 270 274 274 275 280 289
240 241 241 229 221 220 219 218 219 219 218 218 218 215 211 210 209 208 207 207 209 210 211 211 211 212 213 214 213 215 218 220 221 220 220 222 222 220 217 217 216 216 220 224 225 232 240 237 231 232 236 239 240 239 238 236 231 229 229 229 229 228 227 226 227 228 227 226 228 230 230 232 234 238 246 254 258 261 268 275 279 276 271 275 283
243 239 241 236 227 224 223 220 220 220 218 218 219 215 210 208 207 207 208 208 209 211 211 211 211 211 212 212 213 215 218 221 222 220 220 223 223 219 215 214 215 217 219 221 222 228 237 236 231 232 236 239 241 239 237 235 232 229 229 229 228 227 228 229 229 228 228 230 231 233 235 237 240 245 251 256 258 261 266 272 274 270 268 270 269
253 242 240 240 235 230 228 227 225 222 219 218 220 216 211 207 207 207 209 209 210 211 210 210 210 210 211 212 214 216 218 221 222 220 222 225 223 218 213 213 215 215 216 217 220 225 231 231 229 232 237 240 240 237 235 235 232 230 231 230 228 228 231 235 235 232 231 232 232 233 236 238 242 246 249 253 256 260 265 269 270 270 272 272 266
261 250 244 243 238 230 228 230 230 226 221 219 219 217 212 208 207 207 208 209 210 209 209 209 209 210 211 211 212 215 219 222 222 221 223 227 224 217 213 213 214 212 212 216 218 220 226 229 228 229 234 238 239 236 233 232 232 231 232 231 229 230 238 245 241 232 230 231 232 234 236 239 242 245 247 250 253 257 262 267 268 270 272 272 272
261 255 250 247 241 234 230 229 227 224 221 220 219 216 212 208 207 206 207 207 207 208 208 209 209 209 210 210 211 214 218 222 222 222 224 227 224 219 216 215 213 212 213 216 219 221 225 229 227 227 230 236 238 236 230 228 230 231 231 232 230 231 240 248 242 229 225 227 230 233 236 238 241 244 246 249 253 257 261 264 265 267 270 276 283
263 257 253 249 244 239 234 230 226 223 220 221 221 217 212 208 206 205 205 205 206 207 208 207 208 208 208 209 210 213 218 221 222 223 226 228 224 220 218 216 215 215 215 217 219 221 224 229 230 230 234 238 240 238 232 227 228 228 227 228 229 228 232 236 235 231 228 227 228 230 234 238 241 244 247 250 253 255 255 258 263 266 273 286 292
271 262 254 249 244 239 234 234 234 231 227 225 224 220 214 209 205 204 205 204 204 205 206 206 206 206 208 210 211 213 218 221 222 223 226 227 223 220 219 218 218 218 219 221 223 222 223 228 232 234 237 241 241 237 231 226 226 226 224 225 227 227 225 224 227 230 231 231 232 233 235 239 243 246 248 249 255 262 264 272 284 287 293 305 307
280 271 258 249 244 238 233 236 239 235 228 224 223 220 215 209 206 205 204 203 202 202 203 204 204 205 207 209 210 213 218 222 223 223 225 226 223 219 217 217 219 221 222 224 225 222 223 228 232 233 235 237 238 235 229 225 224 225 224 224 224 223 222 219 221 226 229 230 233 234 235 240 244 247 249 254 264 274 279 288 296 299 303 309 307
280 275 259 249 248 244 236 236 240 237 228 223 220 217 212 206 204 204 203 201 201 201 201 202 203 204 206 207 208 212 217 221 223 223 224 224 221 217 215 216 220 222 223 224 223 222 225 229 229 229 232 233 232 229 225 224 224 224 223 222 221 221 222 217 212 217 226 227 226 228 232 236 236 230 230 243 256 259 259 265 273 280 284 284 285
278 272 259 249 250 250 243 240 242 243 240 230 220 215 212 207 204 203 202 202 203 202 201 201 202 204 205 206 208 211 216 219 220 219 220 219 216 214 212 213 217 220 221 223 222 221 223 225 224 224 229 231 229 224 219 219 221 220 219 219 220 222 224 217 208 211 221 225 225 229 234 235 230 221 217 222 229 230 232 235 238 246 253 259 269
280 271 260 249 248 249 247 245 246 252 257 246 226 216 212 208 205 204 203 204 205 204 203 203 203 203 203 203 204 209 213 215 214 214 214 211 209 210 210 209 213 216 216 217 219 219 219 220 220 221 225 227 224 221 217 217 217 216 215 218 220 222 224 221 215 215 220 225 227 230 231 225 219 219 221 223 222 221 224 229 234 242 250 258 267
282 272 262 253 250 249 248 249 248 253 257 246 228 219 215 211 209 209 209 209 209 206 205 205 205 204 202 199 200 206 211 214 214 214 211 205 203 205 207 209 211 213 213 212 213 214 215 214 213 214 216 215 212 211 212 213 214 215 215 218 221 223 223 222 218 217 218 219 219 221 222 219 214 214 219 225 228 229 231 233 236 241 247 254 259
281 276 267 259 254 251 253 255 251 249 248 238 225 221 218 214 212 213 212 213 213 210 207 206 206 205 203 200 200 204 209 212 214 215 212 206 203 205 207 209 211 212 213 213 211 209 208 209 209 209 208 206 204 204 205 208 210 213 215 219 222 223 222 220 218 216 213 212 211 211 212 215 216 214 215 220 226 232 236 237 240 246 252 252 250
282 282 275 267 261 256 256 256 254 251 247 238 230 227 224 218 215 214 214 215 215 213 209 207 206 205 203 201 203 207 211 214 216 215 213 211 210 210 210 211 213 213 213 212 210 207 205 205 207 209 207 204 203 203 204 206 209 210 213 217 221 222 220 219 219 217 214 213 211 208 209 214 214 210 211 219 222 224 230 234 238 244 249 243 243
286 284 278 272 268 262 256 255 255 255 250 242 240 237 232 225 219 215 214 215 214 213 212 212 211 207 204 203 204 209 215 221 223 222 220 219 217 216 214 213 214 215 214 212 209 206 204 204 208 211 210 206 205 206 208 209 210 211 213 216 219 220 218 218 218 217 217 217 215 211 213 220 219 211 210 217 219 219 225 233 238 240 239 238 245
292 291 288 281 272 264 259 256 256 258 257 252 247 238 230 225 220 214 212 212 212 212 213 214 212 208 206 206 208 211 216 221 224 225 225 223 221 220 217 215 214 214 214 213 209 206 206 209 211 212 209 206 207 209 211 212 212 213 215 218 218 218 219 219 218 218 220 223 222 219 218 222 219 210 209 213 213 214 221 229 236 239 235 234 242
304 305 300 291 277 267 264 260 256 256 258 257 251 240 230 225 220 214 210 208 209 212 215 216 214 211 208 210 213 216 219 222 222 223 222 219 217 219 218 215 214 213 213 212 210 207 207 210 213 213 210 208 209 212 213 213 214 215 217 220 221 221 222 222 221 221 222 225 227 226 224 222 215 209 210 213 212 212 216 220 224 226 224 222 228
308 314 309 301 291 278 268 262 257 253 248 246 247 242 232 225 221 217 214 209 207 209 212 213 214 213 211 211 214 218 222 223 223 223 221 214 211 213 213 212 211 212 213 212 210 208 208 209 212 214 212 211 213 214 213 213 214 215 217 220 223 223 223 221 221 222 221 220 223 228 231 228 221 216 216 215 213 215 219 221 222 223 225 228 232
282 291 303 308 303 292 282 274 269 269 265 255 251 243 228 218 214 212 210 208 207 207 206 204 204 206 208 210 214 218 221 221 219 214 210 208 206 206 207 207 207 208 209 208 206 206 209 211 212 211 211 212 215 216 214 212 212 214 215 216 220 223 223 219 218 220 218 215 217 225 231 230 225 222 219 214 212 216 222 224 227 230 233 238 241
289 283 292 302 300 292 290 288 280 285 302 287 271 257 234 217 212 209 205 203 203 204 204 202 200 203 207 212 217 218 218 219 217 207 199 202 205 205 205 207 208 207 207 207 207 207 209 211 211 210 210 213 215 215 214 211 210 212 214 213 212 215 218 218 218 217 215 214 215 219 224 227 228 228 224 217 215 219 226 230 234 240 243 242 237
314 296 295 298 294 287 287 295 298 291 270 258 265 264 250 232 221 216 212 206 201 201 203 203 202 204 206 209 213 215 216 217 215 208 202 204 209 211 211 211 211 209 208 208 209 208 207 210 211 210 209 210 212 213 212 209 207 209 210 207 204 206 211 217 219 213 208 212 217 218 219 224 229 229 222 218 218 223 229 233 236 243 246 234 224
332 322 314 308 302 295 292 295 306 314 250 188 225 244 247 241 232 226 225 223 217 212 211 210 209 210 208 205 204 207 209 209 208 206 204 204 208 212 214 214 214 213 213 212 210 208 207 209 209 208 207 209 210 209 209 209 206 204 202 200 201 204 208 212 215 213 211 214 219 218 217 222 228 226 220 219 222 225 229 232 237 242 239 226 226
341 332 326 318 311 307 302 296 296 302 320 345 191 212 230 237 235 232 231 229 224 218 214 213 216 214 210 207 206 206 206 206 208 207 206 205 206 208 211 213 214 215 216 213 209 206 205 206 205 202 202 205 206 205 205 205 202 199 199 199 201 205 208 208 208 213 220 221 216 214 219 227 230 227 224 224 227 228 230 233 240 245 238 228 231
2 349 337 327 317 312 311 309 304 303 308 315 314 274 251 241 233 232 231 229 227 221 216 218 221 217 210 211 215 214 211 211 213 213 212 212 211 210 211 213 214 214 215 213 209 205 205 204 203 201 199 199 201 200 199 198 199 198 198 199 201 206 212 209 205 209 220 224 219 218 224 231 233 230 228 228 230 233 236 240 244 244 237 231 234
15 8 359 353 342 327 320 319 316 314 313 310 308 312 308 272 243 240 239 239 240 236 229 228 228 222 216 219 224 224 223 223 222 220 218 218 218 217 217 216 214 214 215 213 210 208 206 203 201 200 197 195 196 197 196 197 199 196 194 197 203 209 213 208 204 207 214 219 221 221 224 229 233 233 232 232 235 239 242 244 244 238 232 235 241
15 14 12 12 9 360 353 347 337 330 323 312 302 297 288 263 246 244 243 243 247 247 243 238 235 231 229 230 231 231 231 231 229 227 224 222 223 224 222 219 216 215 215 214 212 210 207 202 199 197 195 194 195 196 196 197 193 188 189 196 204 211 210 206 207 211 213 215 219 224 227 231 235 236 236 238 241 243 240 238 237 236 235 238 244
14 19 23 25 24 20 21 21 14 9 0 342 325 309 288 268 252 248 248 245 243 243 240 237 237 237 235 235 233 231 230 231 231 230 227 226 225 224 221 219 216 214 214 214 212 208 204 200 196 192 192 194 193 190 190 192 190 189 192 197 204 212 215 213 214 218 219 219 221 225 229 234 237 238 241 242 241 236 230 228 230 234 238 240 240
18 27 33 34 31 28 30 35 38 39 36 26 13 359 331 302 276 262 256 250 244 240 237 237 240 241 240 237 234 230 230 231 231 230 229 228 225 221 217 216 214 212 211 210 207 204 201 199 196 194 195 197 197 193 193 196 197 199 200 199 201 208 212 212 215 221 222 221 223 226 229 234 237 240 242 241 233 224 222 225 228 230 231 232 234
20 33 38 39 36 32 32 36 40 43 43 39 35 34 28 15 349 311 287 273 261 251 244 241 243 244 245 244 239 233 231 231 230 228 227 226 222 218 214 212 210 209 207 205 202 201 199 196 195 197 200 200 200 202 204 203 203 206 207 206 206 210 211 212 220 228 228 227 229 231 232 235 239 240 238 233 225 220 220 224 226 226 227 229 234
23 37 43 44 41 35 32 33 37 41 44 42 39 39 40 37 31 21 5 334 296 271 257 249 247 246 246 246 241 235 232 231 228 225 223 221 217 214 210 208 206 206 205 203 199 196 194 193 194 198 199 195 194 200 203 203 205 210 212 212 215 219 220 220 226 232 234 234 236 236 237 239 241 240 234 225 220 220 223 225 225 227 230 233 238
31 36 39 43 45 42 37 36 36 40 44 44 41 40 42 43 42 40 35 27 9 327 283 262 253 248 244 241 237 231 227 224 223 220 217 214 210 206 203 203 202 202 203 201 195 191 191 192 194 197 200 197 195 198 202 205 207 208 205 205 210 217 219 221 226 233 237 238 238 237 239 239 237 233 227 219 216 219 225 229 231 234 237 240 244
37 39 40 44 47 46 45 43 42 43 45 45 44 44 43 43 45 45 43 41 37 26 348 264 241 234 227 221 218 217 217 217 217 214 207 197 190 188 190 191 191 190 189 189 189 188 190 191 191 195 201 204 203 204 205 204 199 195 195 200 208 216 219 219 220 223 227 229 228 228 229 229 227 225 223 218 216 220 226 231 235 239 243 244 245
32 41 50 54 53 49 46 44 43 44 46 47 48 48 47 44 43 44 46 48 49 47 50 152 188 194 197 197 199 202 205 208 208 205 196 184 176 175 174 173 175 177 178 178 181 185 189 190 191 195 201 205 206 206 201 195 194 197 203 208 214 220 222 212 200 199 201 202 203 205 206 210 216 225 231 228 221 220 224 228 231 237 244 246 241
25 41 55 59 59 60 61 57 50 46 45 44 45 47 50 50 49 49 51 56 60 62 70 116 165 173 176 179 180 181 184 183 178 175 176 176 175 173 172 171 172 176 179 181 182 185 188 190 193 195 198 202 203 198 192 192 197 204 207 209 212 216 215 203 191 190 189 181 175 179 188 198 208 219 230 236 236 231 225 222 223 227 235 243 243
25 48 59 62 65 72 76 76 71 63 55 49 46 45 47 49 52 53 55 60 67 72 77 92 126 153 165 173 176 168 162 163 162 163 168 173 175 175 174 173 173 175 175 175 177 180 184 188 191 193 195 198 197 194 194 199 204 205 205 206 205 204 202 194 187 193 203 206 200 193 188 193 201 208 215 223 231 236 233 226 223 224 227 231 236
Height
1449 1452 1454 1456 1457 1459 1461 1464 1466 1468 1470 1473 1476 1478 1480 1481 1482 1484 1485 1486 1488 1491 1493 1495 1497 1500 1502 1504 1505 1505 1506 1507 1509 1511 1513 1513 1515 1517 1519 1521 1523 1524 1525 1526 1528 1529 1530 1531 1532 1533 1534 1535 1536 1537 1537 1537 1537 1537 1538 1538 1539 1540 1540 1541 1542 1543 1543 1543 1543 1542 1542 1543 1543 1543 1543 1543 1543 1543 1543 1543 1542 1541 1541 1541 1541
1446 1448 1451 1452 1453 1455 1457 1459 1462 1464 1466 1469 1472 1474 1477 1478 1479 1480 1481 1482 1484 1487 1489 1492 1494 1497 1499 1501 1502 1503 1504 1505 1506 1507 1509 1510 1511 1513 1516 1518 1519 1521 1523 1524 1525 1526 1527 1529 1530 1531 1532 1532 1533 1534 1534 1534 1534 1534 1535 1536 1536 1537 1538 1539 1540 1541 1541 1541 1541 1540 1540 1541 1542 1542 1542 1542 1542 1542 1542 1542 1541 1540 1540 1540 1540
1443 1446 1448 1450 1450 1451 1453 1455 1457 1459 1462 1464 1467 1470 1472 1474 1475 1476 1477 1478 1480 1483 1486 1489 1491 1493 1495 1497 1499 1500 1501 1502 1503 1503 1505 1506 1508 1509 1512 1514 1516 1518 1519 1520 1522 1523 1524 1525 1526 1528 1529 1529 1529 1530 1530 1531 1531 1532 1532 1533 1534 1535 1536 1537 1538 1539 1539 1538 1538 1538 1539 1540 1541 1541 1541 1541 1541 1541 1541 1541 1540 1540 1539 1539 1539
1440 1443 1446 1450 1450 1449 1450 1451 1452 1455 1457 1460 1463 1465 1468 1470 1471 1471 1472 1474 1476 1479 1483 1486 1489 1490 1492 1494 1496 1497 1499 1499 1499 1500 1502 1503 1504 1506 1508 1510 1512 1514 1516 1517 1519 1520 1521 1521 1522 1524 1525 1525 1525 1526 1527 1528 1528 1529 1530 1531 1532 1534 1535 1535 1536 1536 1536 1535 1536 1537 1537 1538 1539 1540 1540 1540 1540 1540 1540 1540 1540 1540 1539 1539 1538
1436 1439 1444 1450 1450 1448 1446 1447 1448 1450 1453 1456 1458 1461 1463 1466 1467 1467 1468 1470 1472 1475 1479 1482 1485 1487 1488 1490 1492 1494 1495 1496 1496 1497 1498 1499 1501 1503 1505 1507 1509 1510 1513 1514 1516 1517 1518 1518 1518 1520 1521 1521 1522 1523 1524 1525 1526 1527 1528 1529 1531 1532 1533 1533 1533 1533 1533 1533 1534 1535 1535 1535 1537 1538 1539 1539 1538 1538 1538 1538 1538 1538 1538 1538 1537
1432 1434 1439 1445 1447 1445 1444 1443 1444 1446 1448 1451 1453 1456 1459 1461 1462 1462 1463 1466 1468 1472 1475 1478 1480 1483 1484 1486 1488 1491 1492 1493 1493 1494 1495 1496 1498 1500 1501 1503 1505 1507 1509 1511 1513 1514 1515 1515 1515 1517 1518 1518 1519 1520 1522 1523 1524 1525 1526 1528 1529 1529 1530 1530 1530 1531 1532 1532 1532 1534 1534 1534 1535 1536 1537 1538 1538 1537 1537 1537 1536 1537 1537 1536 1536
1427 1430 1434 1437 1440 1441 1440 1440 1440 1442 1444 1446 1449 1451 1454 1457 1458 1457 1458 1461 1465 1468 1471 1474 1476 1478 1481 1483 1485 1488 1489 1490 1490 1491 1492 1493 1494 1496 1498 1500 1502 1504 1506 1508 1510 1511 1511 1511 1512 1514 1515 1515 1516 1518 1519 1520 1521 1523 1524 1525 1526 1526 1527 1528 1528 1529 1530 1531 1531 1532 1532 1533 1533 1534 1536 1536 1536 1536 1536 1536 1536 1536 1536 1535 1535
1422 1426 1429 1431 1433 1434 1435 1436 1437 1438 1440 1442 1444 1446 1449 1452 1453 1453 1455 1457 1460 1463 1466 1469 1472 1475 1478 1480 1482 1484 1486 1486 1486 1487 1488 1489 1491 1492 1494 1496 1498 1500 1502 1504 1506 1507 1508 1508 1510 1511 1512 1512 1514 1515 1516 1517 1519 1520 1521 1522 1523 1523 1524 1525 1526 1527 1528 1529 1530 1530 1531 1531 1532 1533 1534 1534 1533 1534 1534 1534 1534 1534 1534 1534 1534
1418 1421 1424 1426 1427 1428 1430 1432 1433 1435 1437 1438 1440 1442 1444 1446 1448 1449 1451 1452 1455 1458 1462 1465 1468 1471 1474 1476 1478 1481 1482 1482 1482 1482 1483 1485 1487 1489 1491 1492 1494 1496 1498 1500 1503 1504 1504 1505 1507 1508 1509 1510 1511 1513 1514 1515 1516 1518 1519 1520 1520 1521 1522 1523 1524 1525 1526 1528 1529 1529 1529 1530 1531 1531 1532 1532 1532 1533 1532 1532 1532 1532 1532 1532 1532
1414 1416 1419 1420 1422 1424 1425 1427 1429 1431 1433 1434 1436 1438 1440 1441 1443 1445 1446 1448 1451 1454 1458 1461 1464 1466 1469 1472 1474 1476 1477 1477 1478 1478 1480 1482 1484 1486 1487 1489 1491 1493 1494 1496 1498 1500 1501 1502 1504 1506 1507 1508 1509 1510 1511 1512 1514 1515 1517 1518 1518 1520 1521 1522 1523 1524 1525 1526 1527 1528 1528 1529 1529 1529 1530 1530 1531 1531 1531 1531 1531 1531 1531 1530 1530
1410 1411 1413 1415 1417 1419 1420 1422 1424 1426 1429 1431 1432 1433 1435 1436 1438 1440 1442 1444 1446 1450 1453 1456 1459 1462 1464 1467 1469 1471 1472 1473 1474 1475 1477 1479 1481 1482 1484 1486 1487 1489 1491 1492 1494 1496 1498 1500 1501 1503 1504 1505 1506 1508 1508 1510 1511 1513 1515 1516 1517 1519 1520 1521 1522 1523 1524 1525 1526 1526 1527 1527 1528 1528 1528 1529 1529 1529 1529 1529 1529 1529 1529 1528 1528
1405 1406 1407 1409 1411 1413 1415 1417 1419 1421 1424 1426 1428 1429 1430 1432 1433 1435 1437 1439 1441 1444 1448 1451 1454 1457 1460 1462 1464 1466 1468 1469 1470 1472 1473 1476 1478 1480 1481 1482 1484 1486 1488 1489 1491 1493 1495 1496 1498 1499 1500 1502 1503 1504 1506 1507 1509 1511 1512 1514 1515 1517 1518 1520 1520 1521 1522 1523 1524 1525 1526 1526 1526 1527 1527 1527 1527 1527 1527 1527 1527 1527 1527 1527 1527
1401 1401 1401 1404 1405 1407 1410 1411 1413 1416 1419 1421 1423 1424 1425 1426 1428 1429 1431 1433 1436 1439 1442 1445 1449 1452 1455 1457 1459 1461 1464 1465 1467 1468 1470 1472 1474 1476 1477 1479 1481 1483 1485 1485 1487 1489 1491 1493 1494 1495 1497 1498 1500 1502 1503 1505 1507 1508 1510 1511 1513 1515 1516 1518 1519 1520 1521 1522 1523 1523 1524 1524 1525 1525 1525 1525 1526 1526 1526 1526 1526 1526 1526 1526 1525
1396 1397 1397 1398 1400 1402 1404 1406 1407 1410 1414 1417 1418 1419 1420 1421 1422 1424 1426 1428 1430 1433 1437 1440 1443 1447 1449 1451 1454 1457 1459 1461 1463 1465 1467 1469 1470 1472 1474 1476 1478 1481 1481 1482 1484 1486 1488 1489 1490 1491 1493 1495 1497 1498 1500 1502 1504 1506 1508 1509 1511 1513 1514 1516 1517 1518 1520 1521 1521 1521 1521 1522 1523 1523 1523 1523 1524 1524 1525 1524 1524 1524 1524 1524 1524
1392 1393 1393 1393 1395 1397 1399 1400 1402 1405 1409 1413 1414 1413 1414 1415 1416 1418 1420 1422 1424 1427 1430 1434 1437 1441 1444 1446 1449 1452 1454 1456 1458 1460 1463 1465 1467 1469 1471 1473 1475 1478 1479 1479 1481 1483 1484 1486 1487 1488 1490 1491 1493 1495 1497 1499 1502 1503 1505 1507 1508 1510 1512 1513 1514 1516 1517 1518 1519 1519 1519 1520 1520 1520 1521 1521 1522 1523 1523 1523 1523 1522 1522 1522 1522
1388 1388 1389 1389 1389 1391 1393 1394 1397 1400 1404 1408 1409 1408 1408 1409 1410 1412 1414 1416 1418 1421 1425 1428 1432 1435 1438 1441 1444 1447 1448 1450 1453 1456 1459 1462 1464 1467 1469 1470 1472 1475 1475 1476 1478 1479 1481 1482 1483 1484 1486 1488 1490 1493 1495 1497 1499 1501 1503 1504 1506 1508 1509 1510 1511 1513 1514 1515 1517 1518 1518 1518 1518 1518 1519 1520 1521 1521 1521 1521 1521 1521 1521 1521 1520
1383 1384 1385 1385 1385 1386 1388 1389 1391 1395 1399 1403 1404 1403 1402 1403 1404 1405 1407 1410 1413 1415 1418 1422 1425 1429 1432 1435 1438 1441 1443 1445 1448 1451 1455 1458 1461 1463 1465 1467 1469 1470 1471 1473 1474 1475 1477 1478 1479 1481 1483 1484 1487 1490 1492 1494 1496 1498 1500 1501 1503 1504 1506 1507 1509 1510 1511 1513 1514 1516 1516 1516 1516 1517 1518 1519 1519 1519 1519 1519 1519 1519 1519 1519 1519
1379 1380 1380 1382 1382 1382 1383 1385 1387 1390 1393 1397 1400 1399 1397 1397 1397 1399 1401 1403 1405 1408 1412 1415 1419 1423 1426 1429 1433 1436 1437 1439 1443 1447 1451 1454 1456 1460 1462 1463 1464 1466 1467 1469 1470 1471 1473 1475 1476 1478 1479 1481 1484 1487 1489 1491 1493 1495 1497 1498 1500 1501 1502 1505 1506 1508 1509 1510 1511 1513 1514 1514 1515 1516 1516 1517 1517 1517 1518 1518 1518 1518 1517 1517 1517
1375 1375 1376 1378 1379 1379 1379 1380 1382 1384 1387 1391 1394 1394 1391 1390 1391 1393 1394 1397 1399 1402 1406 1410 1414 1417 1420 1424 1428 1431 1432 1435 1438 1442 1446 1449 1452 1455 1457 1458 1460 1462 1463 1464 1466 1468 1470 1471 1473 1476 1477 1478 1481 1484 1486 1488 1490 1491 1493 1495 1497 1498 1500 1502 1504 1505 1506 1507 1509 1510 1511 1512 1513 1514 1514 1515 1515 1515 1516 1516 1516 1516 1516 1516 1516
1371 1371 1371 1372 1373 1375 1375 1376 1377 1379 1380 1384 1387 1388 1385 1384 1385 1387 1389 1392 1395 1398 1402 1405 1408 1412 1415 1419 1423 1425 1427 1430 1433 1437 1441 1444 1447 1450 1453 1453 1455 1456 1457 1459 1462 1465 1467 1469 1471 1473 1474 1475 1478 1480 1483 1485 1486 1487 1490 1492 1494 1496 1497 1498 1500 1502 1503 1505 1506 1508 1509 1510 1510 1511 1512 1512 1513 1513 1514 1514 1514 1514 1514 1514 1514
1369 1368 1368 1367 1368 1370 1371 1372 1374 1375 1376 1378 1379 1380 1379 1378 1378 1380 1383 1387 1390 1393 1397 1400 1404 1407 1410 1414 1418 1420 1422 1424 1428 1432 1436 1439 1442 1445 1447 1448 1450 1451 1452 1455 1458 1461 1463 1465 1467 1469 1471 1472 1474 1477 1480 1482 1482 1484 1487 1489 1491 1494 1495 1495 1496 1499 1501 1502 1504 1505 1506 1507 1508 1509 1509 1510 1510 1511 1512 1512 1512 1512 1512 1513 1513
1366 1365 1365 1364 1365 1365 1365 1367 1369 1370 1372 1373 1374 1375 1375 1374 1374 1375 1378 1381 1384 1387 1391 1395 1399 1403 1406 1410 1413 1415 1417 1420 1423 1427 1431 1434 1437 1440 1443 1445 1446 1447 1448 1451 1454 1457 1459 1460 1463 1466 1468 1470 1472 1474 1477 1479 1479 1481 1483 1486 1488 1491 1492 1492 1494 1496 1498 1499 1501 1502 1503 1504 1505 1506 1507 1507 1508 1509 1510 1510 1510 1511 1511 1511 1511
1361 1361 1360 1361 1362 1362 1361 1362 1364 1364 1366 1367 1370 1373 1374 1372 1372 1372 1374 1376 1379 1382 1386 1390 1394 1398 1401 1405 1408 1410 1412 1415 1418 1422 1426 1429 1432 1436 1439 1441 1442 1443 1444 1447 1450 1453 1455 1456 1459 1463 1466 1467 1469 1472 1475 1476 1477 1478 1480 1483 1486 1488 1490 1491 1492 1494 1495 1497 1498 1499 1500 1501 1502 1503 1504 1505 1506 1506 1507 1507 1508 1508 1508 1509 1509
1356 1355 1355 1356 1359 1361 1361 1361 1362 1363 1362 1362 1364 1368 1370 1368 1367 1368 1369 1371 1373 1376 1380 1384 1388 1392 1396 1399 1403 1405 1407 1410 1413 1417 1421 1425 1428 1432 1435 1437 1438 1439 1441 1444 1447 1450 1451 1453 1457 1460 1463 1465 1467 1469 1472 1474 1475 1476 1478 1481 1484 1485 1487 1489 1490 1491 1493 1494 1495 1496 1497 1498 1500 1501 1502 1502 1503 1504 1504 1505 1505 1505 1506 1506 1506
1352 1351 1350 1351 1354 1357 1358 1358 1358 1359 1358 1356 1356 1361 1363 1362 1360 1362 1364 1365 1368 1371 1375 1378 1382 1386 1390 1393 1397 1400 1402 1404 1408 1412 1417 1420 1424 1428 1431 1433 1435 1436 1439 1442 1444 1446 1448 1451 1454 1457 1460 1462 1464 1466 1469 1471 1472 1473 1476 1479 1481 1483 1485 1487 1488 1489 1490 1491 1493 1494 1495 1496 1498 1499 1501 1502 1503 1503 1503 1504 1504 1504 1504 1505 1505
1349 1347 1346 1345 1347 1350 1351 1350 1350 1351 1352 1351 1350 1353 1355 1354 1354 1356 1359 1360 1363 1366 1369 1373 1377 1381 1385 1389 1392 1394 1396 1399 1402 1407 1412 1415 1420 1423 1426 1429 1431 1434 1436 1439 1440 1442 1446 1449 1452 1454 1457 1459 1461 1463 1466 1467 1469 1471 1473 1476 1478 1480 1482 1484 1486 1487 1488 1489 1491 1492 1493 1495 1496 1498 1500 1501 1502 1502 1503 1503 1504 1504 1504 1505 1505
1347 1345 1343 1342 1342 1343 1344 1344 1344 1345 1347 1347 1348 1348 1348 1348 1350 1352 1354 1356 1359 1362 1365 1368 1372 1376 1380 1384 1387 1388 1391 1394 1397 1401 1405 1409 1413 1417 1421 1424 1427 1429 1431 1434 1437 1439 1443 1447 1449 1452 1454 1457 1459 1461 1463 1464 1466 1468 1470 1472 1475 1477 1479 1481 1483 1484 1486 1487 1489 1490 1492 1493 1495 1496 1498 1499 1500 1501 1501 1502 1503 1503 1503 1504 1504
1345 1342 1340 1339 1339 1339 1340 1340 1341 1343 1345 1346 1348 1348 1346 1344 1345 1348 1350 1352 1354 1357 1359 1362 1365 1369 1374 1378 1381 1383 1385 1388 1390 1394 1398 1402 1406 1411 1416 1419 1421 1423 1425 1430 1433 1437 1440 1443 1446 1449 1451 1453 1455 1457 1459 1460 1463 1465 1467 1469 1471 1474 1476 1478 1480 1482 1484 1486 1487 1489 1490 1491 1493 1494 1496 1496 1497 1498 1499 1500 1501 1501 1502 1502 1502
1343 1340 1337 1336 1337 1337 1337 1337 1339 1343 1345 1345 1346 1347 1345 1343 1343 1345 1347 1350 1352 1353 1355 1357 1360 1365 1369 1373 1374 1376 1378 1381 1385 1391 1396 1401 1404 1407 1410 1413 1415 1417 1421 1425 1429 1433 1436 1439 1441 1443 1445 1448 1450 1452 1454 1456 1459 1461 1464 1466 1468 1470 1472 1475 1477 1479 1481 1483 1485 1486 1488 1489 1490 1492 1493 1494 1495 1496 1497 1497 1498 1499 1499 1500 1500
1341 1338 1335 1334 1334 1335 1335 1334 1335 1338 1342 1343 1344 1344 1345 1344 1344 1344 1346 1349 1352 1353 1355 1357 1360 1363 1367 1369 1371 1373 1375 1379 1386 1392 1398 1401 1403 1405 1407 1409 1412 1414 1418 1422 1425 1428 1432 1435 1438 1440 1442 1443 1445 1447 1450 1452 1454 1457 1460 1462 1464 1467 1469 1471 1473 1476 1478 1480 1482 1483 1485 1486 1487 1489 1491 1492 1493 1494 1495 1495 1496 1497 1497 1497 1498
1339 1336 1334 1332 1331 1331 1331 1331 1331 1332 1336 1339 1342 1344 1345 1346 1345 1344 1345 1347 1350 1353 1356 1358 1361 1363 1365 1368 1371 1374 1376 1381 1387 1392 1396 1399 1401 1403 1405 1407 1409 1411 1414 1418 1421 1424 1428 1432 1435 1437 1438 1439 1440 1443 1445 1448 1450 1453 1456 1458 1461 1463 1465 1468 1470 1473 1475 1477 1479 1480 1482 1483 1485 1487 1488 1490 1491 1492 1493 1494 1494 1495 1495 1496 1496
1337 1334 1333 1331 1330 1329 1328 1328 1327 1328 1330 1335 1338 1341 1342 1342 1342 1342 1343 1345 1347 1350 1354 1357 1360 1362 1364 1367 1370 1373 1376 1380 1385 1389 1392 1395 1397 1399 1402 1404 1405 1407 1410 1412 1415 1419 1424 1427 1429 1431 1433 1436 1437 1439 1442 1444 1447 1450 1453 1455 1457 1459 1462 1464 1467 1470 1472 1474 1475 1477 1479 1480 1482 1484 1486 1487 1488 1490 1491 1492 1492 1492 1493 1493 1494
1335 1333 1332 1330 1329 1328 1327 1326 1325 1325 1327 1330 1334 1336 1337 1339 1339 1339 1340 1343 1346 1349 1352 1356 1359 1361 1363 1365 1367 1371 1375 1379 1383 1385 1388 1390 1393 1396 1399 1401 1402 1404 1407 1408 1410 1414 1419 1423 1425 1427 1430 1433 1434 1436 1438 1441 1444 1447 1449 1451 1454 1456 1459 1462 1465 1467 1469 1471 1472 1474 1475 1477 1479 1481 1483 1484 1486 1487 1488 1489 1489 1490 1490 1491 1492
1333 1331 1330 1330 1329 1328 1327 1325 1324 1324 1326 1329 1331 1333 1334 1336 1338 1337 1337 1340 1344 1346 1349 1352 1356 1358 1360 1362 1365 1369 1373 1376 1379 1381 1383 1386 1389 1392 1395 1397 1400 1402 1404 1405 1407 1411 1414 1417 1419 1423 1426 1429 1431 1433 1436 1438 1441 1444 1446 1448 1451 1454 1457 1460 1462 1464 1466 1468 1470 1471 1472 1474 1476 1478 1480 1481 1483 1484 1485 1485 1486 1487 1488 1488 1489
1331 1329 1329 1329 1329 1328 1326 1325 1324 1324 1325 1327 1330 1332 1332 1332 1333 1334 1334 1336 1339 1342 1345 1347 1350 1354 1356 1358 1362 1366 1369 1372 1375 1378 1380 1382 1385 1388 1390 1392 1394 1396 1398 1401 1404 1408 1410 1411 1413 1417 1422 1425 1427 1430 1433 1435 1437 1440 1442 1445 1448 1451 1454 1456 1458 1461 1463 1465 1467 1468 1469 1471 1473 1475 1477 1478 1480 1481 1481 1482 1483 1484 1485 1486 1487
1328 1326 1327 1328 1330 1328 1326 1325 1324 1324 1325 1326 1329 1331 1332 1332 1331 1332 1333 1334 1335 1337 1341 1343 1346 1350 1354 1356 1359 1362 1365 1368 1371 1374 1376 1378 1380 1382 1383 1384 1386 1389 1392 1396 1400 1404 1408 1410 1411 1415 1418 1421 1424 1427 1429 1432 1434 1437 1440 1443 1446 1448 1450 1452 1455 1458 1460 1462 1465 1466 1467 1468 1469 1472 1474 1475 1477 1478 1479 1480 1481 1482 1483 1484 1485
1327 1326 1326 1328 1330 1328 1326 1325 1324 1324 1325 1326 1328 1329 1330 1331 1331 1331 1332 1334 1334 1337 1340 1342 1344 1347 1350 1352 1355 1358 1361 1364 1367 1370 1372 1374 1376 1377 1378 1380 1382 1384 1388 1391 1394 1399 1404 1407 1410 1413 1415 1417 1420 1423 1426 1429 1432 1435 1438 1442 1445 1447 1448 1450 1452 1455 1458 1460 1462 1464 1465 1466 1467 1469 1471 1472 1474 1475 1476 1477 1478 1479 1481 1482 1483
1329 1328 1328 1329 1329 1328 1326 1325 1324 1324 1325 1326 1328 1329 1329 1329 1329 1330 1331 1332 1333 1336 1340 1343 1343 1343 1344 1348 1352 1355 1358 1361 1363 1365 1367 1369 1370 1373 1375 1377 1379 1381 1384 1387 1391 1396 1400 1403 1407 1411 1414 1416 1419 1422 1424 1426 1430 1433 1437 1440 1443 1445 1447 1449 1451 1453 1455 1457 1459 1460 1462 1463 1465 1466 1468 1470 1471 1473 1474 1475 1476 1477 1478 1479 1480
1330 1329 1329 1328 1328 1327 1326 1324 1323 1323 1324 1325 1327 1328 1328 1327 1327 1329 1331 1332 1333 1334 1337 1339 1340 1340 1342 1347 1351 1353 1354 1355 1357 1359 1361 1363 1366 1369 1371 1374 1376 1379 1381 1385 1389 1393 1397 1401 1405 1409 1412 1415 1419 1422 1424 1425 1428 1431 1435 1438 1441 1443 1445 1448 1450 1451 1453 1455 1456 1458 1459 1460 1462 1464 1466 1467 1469 1470 1471 1472 1473 1475 1476 1477 1478
1332 1331 1330 1329 1327 1326 1324 1323 1322 1321 1321 1321 1323 1324 1324 1325 1326 1329 1331 1334 1335 1335 1337 1338 1338 1339 1342 1347 1349 1349 1350 1352 1353 1355 1357 1359 1362 1365 1367 1370 1372 1375 1378 1382 1386 1389 1393 1398 1402 1405 1408 1413 1417 1421 1423 1424 1426 1429 1433 1436 1438 1441 1443 1445 1448 1450 1452 1453 1454 1455 1457 1458 1460 1461 1463 1464 1466 1467 1469 1470 1471 1472 1474 1475 1476
1333 1332 1330 1329 1327 1325 1323 1322 1321 1319 1319 1319 1320 1321 1322 1324 1326 1328 1331 1334 1336 1337 1338 1339 1338 1339 1342 1344 1346 1347 1349 1350 1351 1353 1355 1357 1359 1361 1363 1365 1368 1371 1374 1378 1382 1385 1389 1394 1399 1402 1404 1409 1414 1418 1421 1423 1425 1428 1430 1433 1436 1439 1441 1443 1445 1448 1450 1451 1452 1453 1454 1456 1457 1458 1460 1462 1463 1465 1466 1467 1468 1470 1471 1472 1474
1335 1333 1331 1329 1327 1325 1323 1322 1321 1320 1320 1320 1321 1322 1323 1325 1326 1329 1331 1333 1334 1336 1336 1337 1338 1339 1341 1342 1343 1345 1347 1348 1349 1351 1353 1355 1357 1358 1360 1362 1365 1368 1371 1375 1378 1381 1384 1390 1395 1399 1402 1406 1410 1415 1419 1421 1423 1426 1429 1431 1434 1436 1438 1440 1442 1445 1447 1449 1450 1451 1452 1453 1454 1456 1457 1459 1461 1462 1463 1464 1465 1467 1468 1470 1471
1337 1335 1332 1330 1328 1326 1324 1323 1322 1321 1322 1322 1322 1323 1324 1325 1327 1329 1330 1332 1333 1334 1334 1335 1336 1337 1339 1340 1342 1343 1344 1345 1347 1349 1351 1353 1355 1356 1358 1361 1363 1366 1370 1373 1376 1379 1383 1387 1392 1396 1400 1404 1409 1413 1417 1420 1422 1424 1427 1430 1432 1434 1436 1438 1439 1441 1444 1446 1447 1448 1450 1451 1452 1454 1455 1457 1458 1459 1460 1461 1463 1464 1465 1467 1468
1338 1337 1334 1332 1330 1328 1327 1325 1324 1323 1323 1323 1323 1324 1324 1325 1326 1327 1329 1330 1331 1332 1332 1334 1335 1336 1337 1338 1340 1341 1342 1343 1345 1347 1349 1351 1353 1354 1357 1359 1361 1364 1368 1371 1374 1378 1383 1387 1391 1395 1400 1404 1408 1412 1416 1418 1421 1423 1426 1428 1429 1431 1433 1435 1436 1438 1440 1442 1444 1445 1447 1448 1450 1451 1453 1454 1455 1456 1458 1459 1460 1462 1463 1465 1466
1341 1339 1337 1335 1334 1332 1330 1329 1327 1326 1325 1325 1325 1325 1325 1325 1326 1327 1327 1328 1329 1330 1331 1332 1333 1335 1336 1337 1338 1339 1340 1342 1343 1345 1347 1349 1351 1352 1354 1357 1359 1363 1366 1368 1372 1376 1381 1386 1390 1394 1398 1402 1406 1410 1413 1416 1418 1421 1423 1426 1428 1429 1431 1433 1434 1435 1437 1439 1440 1442 1444 1445 1447 1448 1450 1451 1453 1454 1455 1457 1458 1459 1461 1462 1463
1343 1341 1339 1338 1337 1335 1334 1332 1331 1329 1328 1328 1327 1327 1327 1326 1326 1326 1327 1327 1328 1329 1330 1331 1332 1333 1334 1335 1337 1338 1340 1341 1342 1344 1346 1348 1350 1351 1353 1355 1358 1361 1365 1369 1372 1377 1382 1386 1390 1394 1397 1401 1405 1408 1411 1414 1417 1419 1421 1424 1426 1427 1429 1430 1432 1433 1434 1436 1438 1439 1440 1442 1443 1445 1447 1449 1450 1451 1453 1454 1456 1457 1458 1459 1461
1346 1344 1343 1341 1340 1338 1337 1336 1335 1333 1331 1331 1330 1329 1329 1328 1328 1328 1327 1327 1328 1328 1329 1330 1331 1332 1333 1334 1336 1337 1339 1340 1342 1344 1346 1348 1350 1352 1354 1356 1358 1361 1366 1370 1374 1378 1382 1386 1390 1393 1396 1400 1404 1407 1410 1413 1416 1418 1420 1421 1422 1424 1425 1427 1429 1431 1432 1433 1435 1437 1438 1439 1440 1442 1444 1445 1447 1449 1450 1451 1453 1454 1455 1457 1458
1348 1347 1345 1344 1343 1342 1341 1339 1338 1336 1335 1334 1333 1332 1331 1331 1331 1330 1329 1329 1329 1329 1330 1330 1331 1332 1333 1334 1335 1337 1339 1342 1344 1346 1348 1350 1352 1354 1356 1357 1359 1363 1367 1371 1375 1379 1383 1386 1389 1392 1396 1400 1403 1406 1409 1412 1414 1415 1417 1419 1420 1421 1423 1425 1427 1428 1429 1431 1432 1434 1435 1436 1438 1439 1441 1443 1445 1446 1447 1449 1450 1451 1453 1454 1455
1350 1348 1347 1346 1345 1344 1343 1343 1342 1340 1339 1338 1337 1336 1336 1335 1334 1333 1333 1332 1331 1331 1332 1332 1333 1334 1335 1336 1337 1339 1342 1344 1346 1348 1350 1352 1354 1357 1359 1360 1363 1366 1370 1373 1376 1380 1383 1386 1390 1392 1396 1399 1402 1405 1408 1410 1411 1413 1415 1417 1418 1420 1422 1424 1425 1426 1427 1429 1430 1431 1433 1434 1436 1437 1439 1440 1442 1444 1445 1446 1448 1449 1450 1451 1452
1352 1350 1349 1348 1347 1346 1346 1345 1345 1344 1343 1342 1341 1340 1340 1339 1338 1337 1336 1335 1335 1335 1335 1335 1335 1336 1338 1340 1341 1343 1345 1346 1347 1349 1351 1353 1356 1359 1361 1363 1365 1369 1373 1376 1378 1381 1383 1386 1389 1392 1395 1398 1401 1404 1406 1408 1410 1412 1414 1415 1417 1419 1420 1422 1423 1424 1425 1427 1428 1430 1431 1432 1434 1436 1437 1439 1440 1441 1443 1444 1445 1447 1448 1449 1450
1354 1352 1351 1350 1349 1349 1348 1347 1347 1347 1347 1346 1345 1344 1343 1343 1342 1341 1340 1339 1338 1338 1339 1339 1339 1339 1341 1344 1345 1347 1348 1349 1349 1351 1353 1355 1358 1361 1363 1365 1367 1371 1374 1377 1379 1381 1383 1386 1389 1392 1394 1397 1400 1402 1404 1407 1409 1411 1412 1414 1416 1418 1419 1421 1422 1423 1424 1426 1427 1429 1430 1431 1433 1435 1436 1437 1438 1440 1441 1443 1444 1445 1446 1447 1448